Aérodrome :
LOGIN :

S'inscrire | Disclaimer

   EN    FR    IT 

 










Légende :    VFR   VFR Marginal   IFR   IFR Intensif   IFR Très Intensif
Visi : 
Plafond : 
>= 8 km
>= 3000ft
5 à 8 km
1000 à 3000 ft
1500m à 5 km
500 à 1000 ft
800 à 1500m
200 à 500 ft
< 800m
< 200 ft
Symboles :   Orages  Brouillard  Fortes neiges  Fortes précipitations  Vent > 20 kt
SIGMETs :   Divers  Orages  Givrage  Turbulence  Onde Orograph.  Cendres Volcan.







- Altitude de l'aérodrome : 278 ft
- Code IATA : RJK


LDRI - Rijeka

DERNIER METAR :
  • 202200Z 30003KT CAVOK 23/20 Q1013

METARs EXPIRÉS :
  • 202130Z 00000KT CAVOK 23/21 Q1012
  • 202100Z 33004KT CAVOK 23/22 Q1012
  • 202030Z 34002KT CAVOK 24/22 Q1012
  • 202000Z 32003KT CAVOK 24/21 Q1012
  • 201930Z 32003KT CAVOK 24/22 Q1012

TAF TAF LDRI
Valide du 20 à 18h jusqu'au 21 à 18h UTC


201725Z 2018/2118 VRB02KT CAVOK TX29/2112Z TN21/2103Z
Pas de NOTAMs connus pour ce terrain.



MET'MAP, la Météo Aéronautique d'un coup d'oeil ! - Copyright ORBIFLY Décembre 2007 - Disclaimer

ORBIFLY MET'MAP TEAM :

Programmation & Développement : Alexandra Zaïnal
Conception & Développement : Baudouin d'Aumeries
Co-Programmation & Développement : Marc-Olivier Méhu
Soutien technique & logistique : Manuel Goepfert

Contact : metmap@orbifly.com




SOURCES & CREDITS :

   NOAA